Simultaneous Nadir Overpasses (SNOs) Predictions

Prediction of SNOs between AQUA and METOP-B Satellite Orbit:

Table of predicted SNOs for the next 14.0 days since TLE Epoch: 8/12/2016
Index Date (AQUA) Time (AQUA) Lat,Lon (AQUA) SZA (AQUA ) Date (METOP-B) Time (METOP-B) Lat,Lon (METOP-B) SZA (METOP-B ) Distance(km) Time Diff (sec)
1 08/13/2016 11:04:39 73.58, 8.54 59.15 08/13/2016 11:03:27 73.49, 7.85 59.10 23.86 72
2 08/13/2016 11:54:08 -73.74, 175.83 120.67 08/13/2016 11:54:04 -73.75, 175.77 120.65 2.07 4
3 08/13/2016 12:43:37 73.83, -16.74 59.45 08/13/2016 12:44:42 73.82, -16.72 59.43 1.69 65
4 08/16/2016 06:38:56 73.72, 74.68 60.17 08/16/2016 06:37:47 73.72, 74.79 60.19 3.57 69
5 08/16/2016 07:28:23 -73.77,-117.80 119.76 08/16/2016 07:28:28 -73.79,-117.73 119.75 2.65 5
6 08/16/2016 08:17:53 73.92, 49.50 60.42 08/16/2016 08:19:05 73.90, 49.88 60.37 11.88 72
7 08/19/2016 02:13:10 73.71, 141.13 61.07 08/19/2016 02:12:12 73.70, 141.15 61.07 0.94 58
8 08/19/2016 03:02:37 -73.76, -51.33 118.87 08/19/2016 03:02:53 -73.77, -51.37 118.86 1.59 16
9 08/19/2016 03:52:14 74.28, 115.13 61.70 08/19/2016 03:53:22 74.28, 117.22 61.62 63.03 68
10 08/21/2016 21:47:23 73.71,-152.43 62.00 08/21/2016 21:46:35 73.73,-152.38 62.02 2.71 48
11 08/21/2016 22:36:50 -73.76, 15.11 117.95 08/21/2016 22:37:17 -73.75, 15.00 117.95 3.49 27
12 08/24/2016 17:21:37 73.72, -86.02 62.96 08/24/2016 17:21:00 73.71, -86.03 62.95 1.76 37
13 08/24/2016 18:11:04 -73.77, 81.53 116.98 08/24/2016 18:11:41 -73.78, 81.47 116.97 2.37 37




NCC Satellite Simultaneous Nadir Overpasses (SNOs) Prediction Service
